Location: Unspecified
(0.0000°N, 0.0000°E)
Time: 02:03:46
(UTC+00:00)

CZ-3B DEB - Pass Details

Date: 21 December 2025
Orbit: 439 x 40833 km, 23.6° (Epoch: 17 December)

Event Time Altitude Azimuth Distance (km) Brightness Sun altitude
Rises 16:30:07 0° 293° (WNW) 9,729 ? 20.1°
Reaches altitude 10° 16:35:10 10° 297° (WNW) 10,199 ? 19.0°
Maximum altitude 18:50:45 58° 319° (NW) 31,048 ? -12.0°
Drops below altitude 10° 03:58:47 10° 162° (SSE) 3,134 ? -27.3°
Sets 04:01:14 0° 140° (SE) 3,381 ? -26.7°
